Location: La Pernelle
(49.6188°N, 1.2999°W)
Time: 16:51:44
(UTC+00:00)

SL-16 R/B - Pass Details

Date: 01 November 2021
Orbit: 842 x 846 km, 71.0° (Epoch: 28 November)

Event Time Altitude Azimuth Distance (km) Brightness Sun altitude
Rises 19:28:05 0° 276° (W) 3,405 6.7 -27.1°
Reaches altitude 10° 19:31:54 10° 302° (WNW) 2,474 5.5 -27.8°
Maximum altitude 19:34:43 14° 332° (NNW) 2,216 4.8 -28.2°
Drops below altitude 10° 19:37:34 10° 2° (N) 2,479 4.7 -28.7°
Enters shadow 19:39:15 - 15° (NNE) 2,832 4.9 -28.9°
